Preview of NWS' New Version of Forecast
This preview is not operational and should not be used for support decisions.

Regional Weather Roundup (RWR)

Issued by National Weather Service (NWS)

                            
000
ASUS46 KPQR 220110
RWROR 

OREGON REGIONAL WEATHER ROUNDUP
NATIONAL WEATHER SERVICE PORTLAND OR
600 PM PDT SUN APR 21 2019

NOTE: "FAIR" INDICATES FEW OR NO CLOUDS BELOW 12,000 FEET WITH
NO SIGNIFICANT WEATHER AND/OR OBSTRUCTIONS TO VISIBILITY.

ORZ001>013-220200-
NORTHWEST OREGON

  
CITY           SKY/WX    TMP DP  RH WIND       PRES   REMARKS
ASTORIA        PTSUNNY   51  39  63 W6        30.33F                  
TILLAMOOK      PTSUNNY   54  43  66 NW8       30.34F                  
NEWPORT        MOSUNNY   52  43  71 NW14      30.35F                  
PORTLAND       PTSUNNY   63  40  42 NW6       30.29F                  
VANCOUVER WA   PTSUNNY   61  41  47 W5        30.28F                  
SCAPPOOSE      PTSUNNY   63  43  48 N5        30.28F                  
HILLSBORO      PTSUNNY   62  42  47 NE3       30.27F                  
AURORA         PTSUNNY   60  41  49 CALM      30.29F                  
MCMINNVILLE    PTSUNNY   61  44  53 SE3       30.27F                  
SALEM          PTSUNNY   61  41  47 NE3       30.27F                  
EUGENE         PTSUNNY   61  44  53 NE7       30.28F                  
$$

ORZ021-028-220200-
SOUTHWEST OREGON

  
CITY           SKY/WX    TMP DP  RH WIND       PRES   REMARKS
NORTH BEND     SUNNY     54  46  74 N16       30.31F                  
BROOKINGS      SUNNY     60  48  64 W7        30.20F                  
ROSEBURG       MOSUNNY   63  40  42 NW6       30.25F                  
SEXTON SUMMIT  MOSUNNY   49  41  74 VRB6      30.23S                  
GRANTS PASS    FAIR      66  41  39 N12       30.23S                  
MEDFORD        PTSUNNY   67  40  37 W12       30.18S                  
$$

ORZ014>016-041-220200-
COLUMBIA GORGE

  
CITY           SKY/WX    TMP DP  RH WIND       PRES   REMARKS
TROUTDALE      PTSUNNY   62  41  46 VRB5      30.28F                  
HOOD RIVER     MOSUNNY   59  39  47 MISG      30.22S                  
THE DALLES     SUNNY     63  41  44 NW16      30.18R                  
$$

ORZ029>031-041-044-049-050-061>064-502-503-505>511-220200-
EASTERN OREGON

  
CITY           SKY/WX    TMP DP  RH WIND       PRES   REMARKS
MADRAS         SUNNY     61  37  41 N5        30.20S                  
REDMOND        MOSUNNY   63  36  36 N10       30.18S                  
BEND           MOSUNNY   63  36  36 N9        30.18S                  
PRINEVILLE     MOSUNNY   61  28  29 N9G16     30.19S                  
KLAMATH FALLS  MOSUNNY   61  29  29 NW10      30.16S                  
LAKEVIEW       SUNNY     58  31  35 N12G18    30.17S                  
HERMISTON      SUNNY     70  37  29 W5        30.14F                  
PENDLETON      SUNNY     63  38  39 VRB3      30.16F                  
JOHN DAY       SUNNY     60  34  38 N9        30.17R                  
MEACHAM        SUNNY     53  32  44 CALM      30.20R                  
LA GRANDE      SUNNY     59  34  39 NW18      30.15R                  
BAKER CITY     SUNNY     60  32  34 NW21G26   30.12R                  
BURNS          SUNNY     60  29  30 NW14      30.14R                  
ROME             N/A     62  29  28 N14G24    30.08R                  
ONTARIO        SUNNY     69  37  30 N16G24    30.05R                  
$$